Vorticity
8 7 7 7 7 6 6 7 7 8 10 11 11 9 9 6 6 5 6 7 7 7 8 9 9 10 9 9 9 8 9 8 9 9 8 8 10 10
9 9 9 8 9 8 8 8 8 7 8 7 8 9 13 12 10 8 8 7 7 8 7 8 8 9 10 10 10 9 9 9 9 10 10 9 8 9
7 8 9 8 8 8 8 9 9 9 8 9 8 8 7 13 14 10 11 9 8 8 7 8 7 8 9 9 9 9 9 9 9 9 10 10 9 7
7 7 6 6 7 9 8 8 8 9 9 10 12 9 10 8 10 10 9 10 10 8 8 7 7 7 7 9 8 8 7 7 8 9 9 10 11 10
10 10 9 9 8 7 7 8 9 8 8 8 9 10 8 11 10 11 11 9 8 9 9 8 7 7 8 7 7 8 8 8 8 8 8 8 9 10
8 7 6 6 6 6 7 9 9 9 9 8 8 11 10 9 11 11 11 10 9 9 9 10 9 8 8 8 9 9 10 9 10 9 9 9 8 8
5 5 6 8 11 12 12 10 10 12 12 11 9 9 11 11 9 10 11 12 11 11 10 10 10 11 11 10 8 8 8 9 9 9 10 10 9 8
15 15 15 13 11 11 14 16 16 13 10 11 10 10 12 11 9 7 10 12 12 13 11 10 10 10 9 9 9 10 8 8 8 9 8 8 9 9
12 13 13 15 15 13 12 12 12 13 14 13 12 13 12 11 11 11 8 9 11 12 12 13 11 10 10 10 9 10 9 9 8 7 7 8 8 8
11 13 13 11 11 12 11 12 12 13 13 13 12 10 11 13 13 12 11 11 13 11 10 11 12 12 10 10 10 10 9 9 8 8 8 7 8 9
12 14 14 12 10 12 13 13 13 14 13 13 13 12 12 12 12 12 12 10 11 13 12 9 14 11 10 9 9 10 10 9 7 7 8 9 9 8
17 13 14 16 12 12 13 13 14 13 14 13 15 17 16 15 12 10 11 11 11 11 11 9 8 9 9 9 9 8 9 10 10 10 10 9 8 7
14 13 10 12 15 12 13 13 13 13 13 13 13 13 16 17 17 15 13 10 9 9 10 11 9 10 10 10 9 8 6 7 7 7 7 9 10 10
16 10 6 2 4 9 10 10 10 11 13 13 14 12 12 13 14 15 15 15 16 15 16 16 13 12 10 9 8 11 13 13 13 13 12 12 12 11
4 13 31 31 13 2 1 -0 4 6 7 10 11 14 16 9 13 12 13 14 14 15 16 17 19 19 20 18 15 14 12 11 11 11 10 10 10 12
9 9 5 4 1 9 9 17 13 9 8 4 4 10 11 17 13 5 12 10 10 11 13 14 13 12 14 15 15 17 16 13 15 11 10 10 10 11
14 12 12 13 15 15 12 7 10 12 9 7 9 8 4 11 11 15 13 10 8 6 6 11 15 15 13 12 11 14 13 13 14 13 12 11 12 11
13 13 13 15 16 16 17 18 19 18 20 16 10 9 13 4 9 10 13 14 14 15 8 7 8 13 18 17 13 14 13 13 15 17 15 12 9 8
12 13 14 15 16 13 11 13 16 15 13 14 20 18 12 13 2 8 7 10 12 17 16 12 8 9 13 17 19 17 15 11 12 14 14 13 12 11
13 14 14 14 15 15 10 7 7 6 19 22 14 16 20 11 13 11 3 11 7 9 15 17 11 11 10 14 16 15 13 12 12 13 13 14 13 14
12 11 9 11 13 10 7 8 8 9 10 5 20 20 16 17 11 12 14 3 11 8 7 15 15 9 10 15 19 15 11 11 12 12 13 13 12 12
9 13 14 11 9 10 12 10 11 10 12 12 5 13 21 15 16 14 11 15 4 6 9 8 15 10 10 10 17 16 11 10 11 13 11 10 10 11
12 18 21 18 13 14 11 10 7 13 14 23 16 11 15 19 16 15 12 9 17 4 7 11 9 15 11 10 8 16 14 10 10 11 11 11 13 12
Height
3079 3076 3074 3072 3069 3066 3062 3059 3054 3053 3056 3056 3054 3051 3047 3045 3044 3044 3044 3043 3043 3042 3042 3041 3040 3039 3038 3037 3036 3035 3035 3034 3034 3034 3034 3035 3035 3034
3071 3069 3067 3064 3062 3058 3055 3053 3049 3044 3041 3047 3045 3044 3041 3039 3037 3035 3034 3035 3034 3034 3034 3034 3034 3033 3033 3032 3031 3031 3030 3030 3029 3029 3029 3030 3031 3031
3063 3060 3059 3054 3054 3051 3047 3044 3042 3038 3031 3039 3035 3034 3033 3031 3030 3028 3027 3025 3025 3025 3026 3027 3026 3027 3027 3026 3026 3026 3025 3025 3024 3025 3025 3025 3025 3027
3054 3051 3050 3046 3045 3041 3038 3036 3033 3030 3025 3022 3029 3025 3024 3022 3020 3019 3019 3019 3018 3016 3016 3017 3019 3019 3019 3020 3020 3020 3020 3020 3020 3020 3020 3020 3021 3021
3044 3041 3040 3036 3034 3032 3028 3026 3024 3021 3018 3012 3016 3017 3015 3013 3011 3009 3008 3009 3009 3009 3010 3009 3008 3010 3011 3012 3013 3014 3015 3014 3015 3016 3016 3015 3015 3016
3033 3029 3027 3025 3023 3021 3018 3016 3012 3009 3008 3004 3002 3005 3005 3004 3001 3000 2999 2999 2999 2999 3000 3002 3002 3001 3001 3003 3004 3005 3007 3009 3009 3009 3010 3011 3012 3011
3022 3019 3015 3013 3010 3007 3005 3005 3001 2998 2996 2994 2992 2991 2994 2993 2990 2989 2988 2989 2990 2991 2991 2991 2993 2994 2994 2995 2995 2996 2998 3000 3002 3002 3003 3004 3005 3006
3006 3006 3002 2999 2997 2994 2991 2989 2989 2987 2985 2983 2981 2980 2982 2981 2979 2976 2977 2979 2980 2981 2979 2981 2983 2984 2985 2986 2987 2989 2989 2991 2993 2994 2996 2997 2998 2999
2992 2990 2988 2987 2983 2981 2979 2977 2976 2974 2972 2970 2969 2970 2969 2970 2968 2968 2967 2967 2968 2969 2969 2972 2972 2974 2974 2976 2977 2978 2981 2982 2982 2984 2986 2988 2990 2991
2978 2976 2974 2974 2972 2970 2968 2966 2964 2962 2960 2958 2957 2957 2957 2957 2957 2957 2958 2956 2958 2958 2958 2960 2963 2964 2963 2965 2967 2969 2970 2972 2974 2976 2977 2978 2980 2982
2967 2963 2961 2961 2959 2957 2955 2954 2954 2953 2949 2948 2946 2945 2945 2945 2945 2945 2947 2946 2947 2949 2949 2949 2954 2954 2954 2955 2957 2960 2961 2962 2964 2965 2968 2969 2970 2971
2953 2952 2950 2948 2947 2945 2943 2943 2942 2942 2940 2938 2936 2935 2934 2935 2934 2934 2935 2936 2936 2937 2941 2941 2942 2944 2945 2947 2948 2950 2952 2953 2954 2956 2958 2960 2961 2963
2941 2940 2940 2938 2936 2935 2933 2933 2931 2931 2930 2928 2927 2926 2924 2924 2924 2924 2925 2926 2926 2927 2929 2931 2932 2934 2935 2937 2938 2940 2942 2943 2945 2946 2948 2950 2951 2953
2931 2930 2929 2928 2926 2925 2925 2924 2922 2921 2920 2919 2918 2917 2916 2915 2915 2915 2915 2916 2916 2917 2918 2919 2920 2924 2925 2926 2927 2930 2931 2933 2934 2935 2937 2939 2941 2943
2921 2919 2918 2917 2916 2915 2914 2913 2913 2912 2911 2911 2910 2909 2907 2907 2907 2907 2907 2907 2908 2907 2908 2909 2910 2911 2914 2915 2917 2918 2920 2923 2924 2926 2928 2929 2932 2934
2912 2910 2909 2907 2906 2904 2903 2902 2901 2901 2901 2901 2901 2900 2899 2899 2899 2899 2899 2899 2900 2901 2900 2901 2901 2902 2903 2905 2907 2910 2911 2912 2914 2915 2917 2919 2923 2925
2901 2900 2899 2896 2895 2894 2893 2892 2892 2891 2890 2890 2890 2890 2891 2891 2890 2890 2890 2890 2891 2893 2893 2893 2893 2893 2894 2895 2898 2901 2901 2902 2903 2905 2907 2911 2915 2916
2891 2890 2888 2886 2884 2882 2881 2881 2880 2880 2880 2879 2879 2880 2881 2882 2882 2882 2882 2882 2883 2884 2885 2885 2885 2886 2886 2887 2889 2891 2892 2894 2895 2896 2899 2904 2907 2906
2881 2879 2877 2876 2874 2873 2872 2871 2870 2869 2869 2868 2868 2869 2870 2871 2873 2874 2874 2875 2875 2876 2877 2877 2878 2879 2878 2880 2881 2882 2885 2886 2887 2889 2892 2895 2899 2898
2872 2870 2868 2867 2865 2864 2863 2862 2861 2860 2859 2858 2858 2859 2859 2861 2862 2864 2866 2867 2868 2869 2869 2870 2871 2871 2871 2872 2873 2876 2877 2878 2880 2882 2884 2887 2889 2890
2863 2861 2859 2857 2856 2855 2854 2853 2852 2851 2850 2849 2848 2848 2850 2850 2852 2855 2857 2859 2860 2862 2863 2864 2864 2864 2865 2866 2868 2869 2870 2872 2874 2875 2877 2880 2882 2884
2855 2852 2849 2847 2846 2845 2844 2843 2842 2841 2840 2839 2838 2838 2839 2840 2842 2845 2848 2850 2853 2854 2856 2857 2857 2857 2860 2860 2861 2862 2864 2866 2867 2869 2871 2873 2875 2876
2845 2841 2839 2837 2836 2836 2835 2834 2832 2830 2829 2827 2827 2828 2829 2830 2833 2835 2838 2842 2845 2847 2849 2851 2851 2852 2854 2855 2856 2856 2857 2859 2861 2863 2865 2866 2867 2868